Location: Pl�tzky
(52.0521°N, 11.8020°E)
Time: 09:08:19
(UTC+00:00)

USA 229 - Pass Details

Date: 27 February 2020
Orbit: 986 x 1226 km, 63.4° (Epoch: 26 March)

Event Time Altitude Azimuth Distance (km) Brightness Sun altitude
Rises 17:17:25 0° 227° (SW) 3,721 7.5 -5.3°
Reaches altitude 10° 17:19:57 10° 228° (SW) 2,793 6.8 -5.7°
Maximum altitude 17:26:32 82° 316° (NW) 1,066 3.8 -6.7°
Drops below altitude 10° 17:33:34 10° 46° (NE) 2,962 5.6 -7.8°
Sets 17:36:19 0° 47° (NE) 3,958 6.2 -8.2°
Enters shadow 17:36:20 - 47° (NE) 3,963 6.2 -8.2°
